Location: Grossmotten
(48.5500°N, 15.3833°E)
Time: 03:21:06
(UTC+00:00)

Lacrosse 5 rocket - Pass Details

Date: 15 November 2019
Orbit: 460 x 637 km, 57.0° (Epoch: 09 December)

Event Time Altitude Azimuth Distance (km) Brightness Sun altitude
Exits shadow 03:45:50 21° 13° (NNE) 1,121 3.0 -23.0°
Drops below altitude 10° 03:48:07 10° 51° (NE) 1,618 4.3 -22.7°
Sets 03:50:36 0° 68° (ENE) 2,488 5.8 -22.3°
